| time (UTC) | temp F | wind direction | speed MPH | gust MPH | rain 1hr in | rain 24hr in | rain mn in | humidity % | barometer mb |
| 20260503021759 | 57 | 167 | 1.0 | 3.0 | 0.00 | 0.50 | 0.01 | 99 | 1011.1 |
| 20260503021259 | 57 | 0 | 2.0 | 3.0 | 0.00 | 0.50 | 0.01 | 99 | 1011.1 |
| 20260503020759 | 57 | 187 | 2.0 | 3.0 | 0.00 | 0.50 | 0.01 | 99 | 1011.1 |
| 20260503020539 | 57 | 157 | 2.0 | 4.0 | 0.00 | 0.50 | 0.01 | 98 | 1011.1 |
| 20260503015757 | 57 | 145 | 2.0 | 5.0 | 0.00 | 0.50 | 0.01 | 98 | 1011.1 |
| 20260503015259 | 57 | 215 | 3.0 | 5.0 | 0.00 | 0.50 | 0.01 | 98 | 1011.2 |
| 20260503014754 | 57 | 167 | 3.0 | 7.0 | 0.00 | 0.50 | 0.01 | 98 | 1011.1 |
| 20260503014254 | 57 | 165 | 4.0 | 7.0 | 0.00 | 0.50 | 0.01 | 99 | 1011.1 |
| 20260503013754 | 57 | 130 | 4.0 | 8.0 | 0.00 | 0.50 | 0.01 | 99 | 1010.9 |
| 20260503013254 | 57 | 122 | 4.0 | 8.0 | 0.00 | 0.50 | 0.01 | 98 | 1010.9 |
| 20260503012754 | 56 | 129 | 3.0 | 8.0 | 0.00 | 0.50 | 0.01 | 99 | 1010.9 |
| 20260503012254 | 56 | 153 | 2.0 | 4.0 | 0.00 | 0.50 | 0.01 | 99 | 1010.9 |
| 20260503011754 | 56 | 138 | 2.0 | 4.0 | 0.00 | 0.50 | 0.01 | 99 | 1011.0 |
| 20260503011254 | 56 | 153 | 2.0 | 4.0 | 0.00 | 0.50 | 0.01 | 99 | 1011.0 |
| 20260503010754 | 56 | 161 | 2.0 | 5.0 | 0.00 | 0.50 | 0.01 | 99 | 1010.9 |
| 20260503010301 | 56 | 188 | 2.0 | 5.0 | 0.00 | 0.50 | 0.01 | 99 | 1010.9 |
| 20260503005758 | 56 | 116 | 2.0 | 5.0 | 0.00 | 0.50 | 0.01 | 99 | 1011.0 |
| 20260503005614 | 56 | 158 | 2.0 | 5.0 | 0.00 | 0.50 | 0.01 | 99 | 1011.1 |
| 20260503005317 | 56 | 118 | 2.0 | 5.0 | 0.00 | 0.50 | 0.01 | 99 | 1011.0 |
| 20260503004527 | 56 | 136 | 2.0 | 5.0 | 0.00 | 0.50 | 0.01 | 99 | 1011.0 |
| 20260503004039 | 56 | 42 | 2.0 | 4.0 | 0.00 | 0.50 | 0.01 | 98 | 1011.1 |
| 20260503003252 | 56 | 45 | 2.0 | 5.0 | 0.00 | 0.50 | 0.01 | 98 | 1011.1 |
| 20260503002748 | 56 | 43 | 2.0 | 5.0 | 0.00 | 0.50 | 0.01 | 98 | 1011.2 |
| 20260503002250 | 56 | 130 | 2.0 | 7.0 | 0.00 | 0.50 | 0.01 | 98 | 1011.2 |
| 20260503001747 | 56 | 14 | 3.0 | 7.0 | 0.00 | 0.50 | 0.01 | 97 | 1011.2 |
| 20260503001524 | 56 | 122 | 3.0 | 6.0 | 0.00 | 0.50 | 0.01 | 97 | 1011.2 |
| 20260503000745 | 56 | 114 | 3.0 | 6.0 | 0.00 | 0.50 | 0.01 | 98 | 1011.2 |
| 20260503000245 | 57 | 124 | 2.0 | 6.0 | 0.00 | 0.50 | 0.01 | 98 | 1011.4 |
| 20260502235743 | 57 | 134 | 2.0 | 6.0 | 0.00 | 0.50 | 0.01 | 97 | 1011.5 |
| 20260502235243 | 57 | 97 | 2.0 | 5.0 | 0.00 | 0.50 | 0.01 | 98 | 1011.5 |
| 20260502234743 | 57 | 112 | 2.0 | 5.0 | 0.00 | 0.50 | 0.01 | 98 | 1011.7 |
| 20260502234243 | 56 | 162 | 2.0 | 5.0 | 0.00 | 0.50 | 0.01 | 98 | 1011.7 |
| 20260502233740 | 56 | 73 | 2.0 | 4.0 | 0.00 | 0.50 | 0.01 | 98 | 1011.9 |
| 20260502233240 | 56 | 148 | 2.0 | 6.0 | 0.00 | 0.50 | 0.01 | 98 | 1011.9 |
| 20260502232741 | 56 | 33 | 2.0 | 6.0 | 0.00 | 0.50 | 0.01 | 98 | 1011.8 |
| 20260502232241 | 57 | 119 | 3.0 | 6.0 | 0.00 | 0.50 | 0.01 | 98 | 1011.9 |
| 20260502231742 | 57 | 137 | 3.0 | 6.0 | 0.00 | 0.50 | 0.01 | 98 | 1011.8 |
| 20260502231242 | 57 | 95 | 2.0 | 6.0 | 0.00 | 0.50 | 0.01 | 98 | 1011.8 |
| 20260502230743 | 57 | 149 | 2.0 | 6.0 | 0.00 | 0.50 | 0.01 | 98 | 1011.9 |
| 20260502230534 | 57 | 339 | 2.0 | 6.0 | 0.00 | 0.50 | 0.01 | 97 | 1011.8 |
| 20260502225741 | 56 | 165 | 2.0 | 6.0 | 0.01 | 0.50 | 0.01 | 98 | 1012.0 |
| 20260502225242 | 56 | 83 | 2.0 | 6.0 | 0.04 | 0.50 | 0.01 | 98 | 1012.0 |
| 20260502224741 | 56 | 68 | 2.0 | 6.0 | 0.07 | 0.50 | 0.01 | 98 | 1012.1 |
| 20260502224238 | 56 | 86 | 2.0 | 6.0 | 0.07 | 0.50 | 0.01 | 98 | 1012.1 |
| 20260502223736 | 56 | 140 | 3.0 | 7.0 | 0.09 | 0.50 | 0.01 | 99 | 1012.2 |
| 20260502223232 | 56 | 116 | 4.0 | 9.0 | 0.10 | 0.50 | 0.01 | 98 | 1012.1 |
| 20260502222730 | 56 | 58 | 3.0 | 9.0 | 0.13 | 0.50 | 0.01 | 98 | 1012.1 |
| 20260502222229 | 56 | 89 | 2.0 | 4.0 | 0.19 | 0.50 | 0.01 | 99 | 1012.2 |
| 20260502221730 | 56 | 121 | 2.0 | 7.0 | 0.24 | 0.50 | 0.01 | 99 | 1012.2 |
| 20260502221521 | 56 | 77 | 3.0 | 7.0 | 0.31 | 0.50 | 0.01 | 99 | 1012.3 |
| 20260502220730 | 56 | 120 | 4.0 | 13.0 | 0.43 | 0.50 | 0.01 | 99 | 1012.4 |
| 20260502220507 | 56 | 84 | 7.0 | 13.0 | 0.50 | 0.50 | 0.00 | 99 | 1012.5 |
| 20260502215729 | 56 | 34 | 9.0 | 13.0 | 0.49 | 0.49 | 0.49 | 99 | 1012.2 |
| 20260502215229 | 56 | 28 | 8.0 | 13.0 | 0.46 | 0.46 | 0.46 | 99 | 1012.1 |
| 20260502215006 | 56 | 25 | 6.0 | 11.0 | 0.44 | 0.44 | 0.43 | 99 | 1012.6 |
| 20260502214228 | 56 | 29 | 5.0 | 7.0 | 0.43 | 0.43 | 0.43 | 99 | 1013.1 |
| 20260502213729 | 56 | 23 | 4.0 | 7.0 | 0.42 | 0.42 | 0.42 | 98 | 1013.4 |
| 20260502213230 | 56 | 20 | 3.0 | 6.0 | 0.40 | 0.40 | 0.39 | 96 | 1013.7 |
| 20260502212730 | 56 | 0 | 2.0 | 5.0 | 0.37 | 0.37 | 0.36 | 96 | 1014.1 |
| 20260502212229 | 57 | 267 | 5.0 | 15.0 | 0.32 | 0.32 | 0.31 | 95 | 1014.0 |
| 20260502211728 | 58 | 265 | 7.0 | 15.0 | 0.26 | 0.26 | 0.25 | 93 | 1014.1 |
| 20260502211228 | 59 | 267 | 8.0 | 17.0 | 0.19 | 0.19 | 0.16 | 86 | 1014.5 |
| 20260502211019 | 60 | 232 | 8.0 | 17.0 | 0.07 | 0.07 | 0.04 | 81 | 1014.2 |
| 20260502210228 | 61 | 210 | 5.0 | 13.0 | 0.00 | 0.00 | 0.00 | 71 | 1014.0 |
| 20260502210007 | 60 | 107 | 5.0 | 8.0 | 0.00 | 0.00 | 0.00 | 67 | 1013.9 |
| 20260502205228 | 60 | 3 | 6.0 | 8.0 | 0.00 | 0.00 | 0.00 | 69 | 1012.4 |
| 20260502204728 | 60 | 4 | 6.0 | 8.0 | 0.00 | 0.00 | 0.00 | 69 | 1012.2 |
| 20260502204225 | 60 | 16 | 6.0 | 8.0 | 0.00 | 0.00 | 0.00 | 70 | 1012.3 |
| 20260502203727 | 60 | 19 | 6.0 | 9.0 | 0.00 | 0.00 | 0.00 | 70 | 1012.4 |
| 20260502203228 | 60 | 15 | 8.0 | 9.0 | 0.00 | 0.00 | 0.00 | 71 | 1012.5 |
| 20260502202725 | 60 | 14 | 8.0 | 9.0 | 0.00 | 0.00 | 0.00 | 69 | 1012.5 |
| 20260502202226 | 60 | 11 | 6.0 | 9.0 | 0.00 | 0.00 | 0.00 | 70 | 1012.5 |
| 20260502202015 | 60 | 4 | 6.0 | 8.0 | 0.00 | 0.00 | 0.00 | 71 | 1012.7 |
| 20260502201226 | 60 | 17 | 6.0 | 7.0 | 0.00 | 0.00 | 0.00 | 71 | 1012.7 |
| 20260502200726 | 60 | 12 | 5.0 | 7.0 | 0.00 | 0.00 | 0.00 | 71 | 1012.8 |
| 20260502200225 | 61 | 15 | 5.0 | 7.0 | 0.00 | 0.00 | 0.00 | 69 | 1012.9 |
| 20260502200022 | 61 | 6 | 5.0 | 6.0 | 0.00 | 0.00 | 0.00 | 69 | 1012.9 |
| 20260502195504 | 61 | 7 | 4.0 | 6.0 | 0.00 | 0.00 | 0.00 | 68 | 1013.0 |
| 20260502195004 | 61 | 19 | 4.0 | 6.0 | 0.00 | 0.00 | 0.00 | 69 | 1013.0 |
| 20260502194226 | 61 | 37 | 4.0 | 6.0 | 0.00 | 0.00 | 0.00 | 67 | 1013.0 |
| 20260502193726 | 61 | 18 | 3.0 | 5.0 | 0.00 | 0.00 | 0.00 | 68 | 1013.1 |
| 20260502193459 | 61 | 34 | 4.0 | 5.0 | 0.00 | 0.00 | 0.00 | 66 | 1013.1 |
| 20260502192721 | 61 | 26 | 4.0 | 5.0 | 0.00 | 0.00 | 0.00 | 66 | 1013.1 |
| 20260502192220 | 62 | 24 | 4.0 | 4.0 | 0.00 | 0.00 | 0.00 | 65 | 1013.1 |
| 20260502191718 | 62 | 358 | 4.0 | 5.0 | 0.00 | 0.00 | 0.00 | 62 | 1013.1 |
| 20260502191217 | 62 | 350 | 4.0 | 6.0 | 0.00 | 0.00 | 0.00 | 62 | 1013.2 |
| 20260502190718 | 62 | 351 | 4.0 | 6.0 | 0.00 | 0.00 | 0.00 | 63 | 1013.2 |
| 20260502190218 | 62 | 1 | 4.0 | 6.0 | 0.00 | 0.00 | 0.00 | 63 | 1013.2 |
| 20260502185720 | 62 | 355 | 4.0 | 6.0 | 0.00 | 0.00 | 0.00 | 62 | 1013.2 |
| 20260502185220 | 62 | 4 | 4.0 | 7.0 | 0.00 | 0.00 | 0.00 | 63 | 1013.3 |
| 20260502184719 | 63 | 3 | 5.0 | 8.0 | 0.00 | 0.00 | 0.00 | 60 | 1013.3 |
| 20260502184219 | 63 | 5 | 6.0 | 8.0 | 0.00 | 0.00 | 0.00 | 60 | 1013.2 |
| 20260502183719 | 63 | 329 | 5.0 | 8.0 | 0.00 | 0.00 | 0.00 | 62 | 1013.2 |
| 20260502183219 | 64 | 355 | 5.0 | 8.0 | 0.00 | 0.00 | 0.00 | 61 | 1013.3 |
| 20260502182719 | 64 | 354 | 5.0 | 9.0 | 0.00 | 0.00 | 0.00 | 63 | 1013.4 |
| 20260502182219 | 65 | 7 | 6.0 | 9.0 | 0.00 | 0.00 | 0.00 | 61 | 1013.4 |
| 20260502181719 | 65 | 353 | 6.0 | 10.0 | 0.00 | 0.00 | 0.00 | 60 | 1013.3 |
| 20260502181213 | 65 | 338 | 6.0 | 10.0 | 0.00 | 0.00 | 0.00 | 60 | 1013.3 |
| 20260502180713 | 65 | 9 | 6.0 | 10.0 | 0.00 | 0.00 | 0.00 | 61 | 1013.3 |
| 20260502180212 | 66 | 5 | 6.0 | 10.0 | 0.00 | 0.00 | 0.00 | 59 | 1013.2 |
| 20260502170204 | 69 | 341 | 9.0 | 13.0 | 0.00 | 0.00 | 0.00 | 56 | 1013.7 |
| 20260502164203 | 71 | 322 | 5.0 | 8.0 | 0.00 | 0.00 | 0.00 | 50 | 1014.0 |
| 20260502163704 | 72 | 296 | 5.0 | 9.0 | 0.00 | 0.00 | 0.00 | 49 | 1014.0 |
| 20260502163203 | 71 | 335 | 5.0 | 9.0 | 0.00 | 0.00 | 0.00 | 51 | 1014.1 |
| 20260502162703 | 71 | 339 | 5.0 | 9.0 | 0.00 | 0.00 | 0.00 | 51 | 1014.1 |
| 20260502162201 | 71 | 326 | 5.0 | 8.0 | 0.00 | 0.00 | 0.00 | 51 | 1014.2 |
| 20260502161942 | 71 | 290 | 4.0 | 8.0 | 0.00 | 0.00 | 0.00 | 50 | 1014.3 |
| 20260502161204 | 72 | 331 | 4.0 | 6.0 | 0.00 | 0.00 | 0.00 | 48 | 1014.4 |
| 20260502160702 | 72 | 295 | 4.0 | 6.0 | 0.00 | 0.00 | 0.00 | 47 | 1014.5 |
| 20260502160201 | 72 | 317 | 4.0 | 7.0 | 0.00 | 0.00 | 0.00 | 49 | 1014.5 |
| 20260502152200 | 73 | 214 | 4.0 | 9.0 | 0.00 | 0.00 | 0.00 | 48 | 1014.9 |
| 20260502151701 | 74 | 359 | 3.0 | 6.0 | 0.00 | 0.00 | 0.00 | 46 | 1015.0 |
| 20260502151200 | 72 | 171 | 4.0 | 8.0 | 0.00 | 0.00 | 0.00 | 47 | 1015.0 |
| 20260502150702 | 71 | 170 | 5.0 | 8.0 | 0.00 | 0.00 | 0.00 | 50 | 1015.1 |
| 20260502150157 | 72 | 315 | 4.0 | 9.0 | 0.00 | 0.00 | 0.00 | 52 | 1015.1 |
| 20260502130650 | 72 | 194 | 4.0 | 8.0 | 0.00 | 0.00 | 0.00 | 59 | 1016.5 |
| 20260502130145 | 72 | 279 | 5.0 | 10.0 | 0.00 | 0.00 | 0.00 | 59 | 1016.5 |
| 20260502123642 | 71 | 184 | 4.0 | 11.0 | 0.00 | 0.00 | 0.00 | 58 | 1016.6 |
| 20260502123141 | 71 | 184 | 4.0 | 11.0 | 0.00 | 0.00 | 0.00 | 61 | 1016.7 |
| 20260502122641 | 71 | 275 | 4.0 | 8.0 | 0.00 | 0.00 | 0.00 | 61 | 1016.8 |
| 20260502122142 | 70 | 293 | 4.0 | 11.0 | 0.00 | 0.00 | 0.00 | 61 | 1016.9 |
| 20260502121642 | 70 | 255 | 5.0 | 11.0 | 0.00 | 0.00 | 0.00 | 62 | 1016.9 |
| 20260502121142 | 70 | 211 | 4.0 | 11.0 | 0.00 | 0.00 | 0.00 | 63 | 1016.9 |
| 20260502120643 | 70 | 143 | 4.0 | 9.0 | 0.00 | 0.00 | 0.00 | 64 | 1017.0 |
| 20260502120142 | 70 | 246 | 4.0 | 9.0 | 0.00 | 0.00 | 0.00 | 63 | 1017.0 |
| 20260502115925 | 70 | 296 | 5.0 | 11.0 | 0.00 | 0.00 | 0.00 | 63 | 1017.0 |
| 20260502115217 | 71 | 235 | 6.0 | 11.0 | 0.00 | 0.00 | 0.00 | 61 | 1017.1 |
| 20260502115210 | 70 | 219 | 5.0 | 11.0 | 0.00 | 0.00 | 0.00 | 63 | 1017.0 |
| 20260502114146 | 71 | 225 | 5.0 | 11.0 | 0.00 | 0.00 | 0.00 | 61 | 1017.0 |
| 20260502113642 | 71 | 172 | 4.0 | 8.0 | 0.00 | 0.00 | 0.00 | 61 | 1017.2 |
| 20260502113410 | 70 | 218 | 4.0 | 11.0 | 0.00 | 0.00 | 0.00 | 62 | 1017.2 |
| 20260502112641 | 70 | 141 | 4.0 | 11.0 | 0.00 | 0.00 | 0.00 | 63 | 1017.2 |
| 20260502112137 | 70 | 199 | 4.0 | 9.0 | 0.00 | 0.00 | 0.00 | 63 | 1017.3 |
| 20260502111908 | 70 | 193 | 4.0 | 9.0 | 0.00 | 0.00 | 0.00 | 63 | 1017.3 |
| 20260502111137 | 69 | 274 | 5.0 | 9.0 | 0.00 | 0.00 | 0.00 | 63 | 1017.3 |
| 20260502110638 | 69 | 209 | 6.0 | 11.0 | 0.00 | 0.00 | 0.00 | 65 | 1017.3 |
| 20260502110134 | 68 | 175 | 5.0 | 11.0 | 0.00 | 0.00 | 0.00 | 66 | 1017.4 |
| 20260502105635 | 68 | 161 | 5.0 | 14.0 | 0.00 | 0.00 | 0.00 | 66 | 1017.4 |
| 20260502105135 | 68 | 216 | 6.0 | 14.0 | 0.00 | 0.00 | 0.00 | 68 | 1017.4 |
| 20260502104635 | 68 | 213 | 4.0 | 9.0 | 0.00 | 0.00 | 0.00 | 67 | 1017.5 |
| 20260502104134 | 68 | 219 | 5.0 | 9.0 | 0.00 | 0.00 | 0.00 | 66 | 1017.5 |
| 20260502103634 | 68 | 149 | 5.0 | 9.0 | 0.00 | 0.00 | 0.00 | 67 | 1017.4 |
| 20260502103135 | 69 | 133 | 4.0 | 9.0 | 0.00 | 0.00 | 0.00 | 65 | 1017.6 |
| 20260502102911 | 69 | 183 | 4.0 | 9.0 | 0.00 | 0.00 | 0.00 | 63 | 1017.5 |
| 20260502102146 | 69 | 181 | 5.0 | 11.0 | 0.00 | 0.00 | 0.00 | 62 | 1017.5 |
| 20260502102139 | 69 | 208 | 5.0 | 10.0 | 0.00 | 0.00 | 0.00 | 63 | 1017.5 |
| 20260502101135 | 69 | 232 | 5.0 | 11.0 | 0.00 | 0.00 | 0.00 | 63 | 1017.6 |
| 20260502100635 | 69 | 179 | 4.0 | 12.0 | 0.00 | 0.00 | 0.00 | 63 | 1017.6 |
| 20260502100135 | 69 | 205 | 5.0 | 12.0 | 0.00 | 0.00 | 0.00 | 62 | 1017.7 |
| 20260502091131 | 67 | 289 | 3.0 | 7.0 | 0.00 | 0.00 | 0.00 | 68 | 1017.9 |
| 20260502090631 | 66 | 172 | 4.0 | 8.0 | 0.00 | 0.00 | 0.00 | 70 | 1017.9 |
| 20260502090423 | 64 | 220 | 4.0 | 10.0 | 0.00 | 0.00 | 0.00 | 73 | 1018.0 |
| 20260502090144 | 65 | 189 | 4.0 | 8.0 | 0.00 | 0.00 | 0.00 | 71 | 1017.9 |
| 20260502071351 | 58 | 20 | 2.0 | 4.0 | 0.00 | 0.00 | 0.00 | 73 | 1017.5 |
| 20260502070617 | 58 | 23 | 2.0 | 5.0 | 0.00 | 0.00 | 0.00 | 72 | 1017.6 |
| 20260502070116 | 58 | 220 | 2.0 | 5.0 | 0.00 | 0.00 | 0.00 | 72 | 1017.6 |
| 20260502065614 | 58 | 346 | 1.0 | 4.0 | 0.00 | 0.00 | 0.00 | 71 | 1017.6 |
| 20260502065114 | 58 | 229 | 2.0 | 4.0 | 0.00 | 0.00 | 0.00 | 70 | 1017.8 |
| 20260502064614 | 58 | 245 | 2.0 | 5.0 | 0.00 | 0.00 | 0.00 | 68 | 1017.9 |
| 20260502064116 | 57 | 179 | 3.0 | 6.0 | 0.00 | 0.00 | 0.00 | 65 | 1017.9 |
| 20260502063612 | 57 | 218 | 3.0 | 6.0 | 0.00 | 0.05 | 0.00 | 62 | 1018.0 |
| 20260502063349 | 57 | 163 | 3.0 | 6.0 | 0.00 | 0.06 | 0.00 | 61 | 1017.9 |
| 20260502062612 | 57 | 161 | 2.0 | 6.0 | 0.00 | 0.09 | 0.00 | 60 | 1018.0 |
| 20260502062108 | 57 | 160 | 2.0 | 5.0 | 0.00 | 0.17 | 0.00 | 59 | 1017.9 |
| 20260502061615 | 57 | 201 | 2.0 | 5.0 | 0.00 | 0.17 | 0.00 | 59 | 1017.9 |
| 20260502061608 | 57 | 174 | 2.0 | 5.0 | 0.00 | 0.17 | 0.00 | 59 | 1017.9 |
| 20260502060608 | 56 | 173 | 2.0 | 4.0 | 0.00 | 0.17 | 0.00 | 60 | 1017.9 |
| 20260502060110 | 56 | 192 | 2.0 | 4.0 | 0.00 | 0.17 | 0.00 | 60 | 1017.8 |
| 20260502055902 | 56 | 172 | 2.0 | 3.0 | 0.00 | 0.17 | 0.00 | 59 | 1017.8 |
| 20260502055405 | 56 | 183 | 2.0 | 4.0 | 0.00 | 0.17 | 0.00 | 60 | 1017.8 |
| 20260502054630 | 56 | 170 | 2.0 | 5.0 | 0.00 | 0.17 | 0.00 | 59 | 1017.9 |
| 20260502054622 | 56 | 169 | 2.0 | 4.0 | 0.00 | 0.17 | 0.00 | 59 | 1017.9 |
| 20260502053610 | 56 | 162 | 2.0 | 5.0 | 0.00 | 0.17 | 0.00 | 59 | 1017.8 |
| 20260502053109 | 56 | 175 | 2.0 | 5.0 | 0.00 | 0.17 | 0.00 | 59 | 1017.9 |
| 20260502052609 | 56 | 191 | 2.0 | 4.0 | 0.00 | 0.17 | 0.00 | 59 | 1017.8 |
| 20260502052350 | 56 | 188 | 2.0 | 4.0 | 0.00 | 0.17 | 0.00 | 59 | 1017.6 |
| 20260502051851 | 55 | 196 | 2.0 | 5.0 | 0.00 | 0.17 | 0.00 | 59 | 1017.7 |
| 20260502051404 | 55 | 191 | 2.0 | 5.0 | 0.00 | 0.17 | 0.00 | 60 | 1017.7 |
| 20260502050607 | 55 | 192 | 2.0 | 6.0 | 0.00 | 0.17 | 0.00 | 59 | 1017.7 |
| 20260502050106 | 55 | 322 | 2.0 | 6.0 | 0.00 | 0.17 | 0.00 | 58 | 1017.6 |
| 20260502045607 | 55 | 230 | 3.0 | 6.0 | 0.00 | 0.17 | 0.00 | 58 | 1017.7 |
| 20260502045104 | 55 | 165 | 3.0 | 7.0 | 0.00 | 0.17 | 0.00 | 57 | 1017.7 |
| 20260502044604 | 56 | 163 | 3.0 | 7.0 | 0.00 | 0.17 | 0.00 | 56 | 1017.7 |
| 20260502044414 | 55 | 193 | 2.0 | 5.0 | 0.00 | 0.17 | 0.00 | 55 | 1017.5 |
| 20260502044124 | 55 | 158 | 2.0 | 4.0 | 0.00 | 0.17 | 0.00 | 55 | 1017.5 |
| 20260502043104 | 55 | 156 | 3.0 | 5.0 | 0.00 | 0.17 | 0.00 | 56 | 1017.5 |
| 20260502042604 | 54 | 135 | 2.0 | 5.0 | 0.00 | 0.17 | 0.00 | 58 | 1017.6 |
| 20260502042104 | 54 | 153 | 2.0 | 3.0 | 0.00 | 0.17 | 0.00 | 57 | 1017.6 |
| 20260502041604 | 54 | 144 | 2.0 | 4.0 | 0.00 | 0.17 | 0.00 | 57 | 1017.5 |
| 20260502041104 | 54 | 0 | 2.0 | 4.0 | 0.00 | 0.17 | 0.00 | 57 | 1017.6 |
| 20260502040603 | 54 | 194 | 3.0 | 6.0 | 0.00 | 0.17 | 0.00 | 56 | 1017.6 |
| 20260502040405 | 54 | 181 | 3.0 | 6.0 | 0.00 | 0.17 | 0.00 | 57 | 1017.6 |
| 20260502035602 | 54 | 168 | 3.0 | 5.0 | 0.00 | 0.17 | 0.00 | 57 | 1017.7 |
| 20260502035101 | 55 | 157 | 3.0 | 6.0 | 0.00 | 0.17 | 0.00 | 57 | 1017.6 |
| 20260502034604 | 55 | 211 | 3.0 | 7.0 | 0.00 | 0.17 | 0.00 | 55 | 1017.7 |
| 20260502034102 | 55 | 143 | 4.0 | 7.0 | 0.00 | 0.17 | 0.00 | 54 | 1017.5 |
| 20260502033602 | 55 | 127 | 4.0 | 7.0 | 0.00 | 0.17 | 0.00 | 55 | 1017.6 |
| 20260502033102 | 55 | 133 | 4.0 | 9.0 | 0.00 | 0.17 | 0.00 | 55 | 1017.7 |
| 20260502032842 | 55 | 158 | 4.0 | 9.0 | 0.00 | 0.17 | 0.00 | 55 | 1017.7 |
| 20260502032101 | 55 | 162 | 4.0 | 8.0 | 0.00 | 0.17 | 0.00 | 55 | 1017.8 |
| 20260502031849 | 55 | 185 | 4.0 | 8.0 | 0.00 | 0.17 | 0.00 | 53 | 1017.7 |
| 20260502031103 | 55 | 134 | 4.0 | 8.0 | 0.00 | 0.17 | 0.00 | 53 | 1017.7 |
| 20260502030603 | 55 | 151 | 4.0 | 8.0 | 0.00 | 0.17 | 0.00 | 53 | 1017.7 |
| 20260502030105 | 55 | 145 | 3.0 | 6.0 | 0.00 | 0.17 | 0.00 | 54 | 1017.7 |
| 20260502025601 | 55 | 156 | 2.0 | 5.0 | 0.00 | 0.17 | 0.00 | 54 | 1017.7 |
| 20260502025101 | 55 | 151 | 2.0 | 6.0 | 0.00 | 0.17 | 0.00 | 54 | 1017.9 |
| 20260502024601 | 55 | 153 | 3.0 | 6.0 | 0.00 | 0.17 | 0.00 | 54 | 1017.8 |
| 20260502024344 | 55 | 166 | 4.0 | 6.0 | 0.00 | 0.17 | 0.00 | 53 | 1018.0 |
| 20260502023601 | 56 | 150 | 4.0 | 6.0 | 0.00 | 0.17 | 0.00 | 54 | 1018.1 |
| 20260502023100 | 56 | 142 | 4.0 | 6.0 | 0.00 | 0.17 | 0.00 | 53 | 1018.1 |
| 20260502022601 | 56 | 143 | 3.0 | 6.0 | 0.00 | 0.17 | 0.00 | 54 | 1018.1 |